Location: Unspecified
(0.0000°N, 0.0000°E)
Time: 00:37:19
(UTC+00:00)

Traac - Pass Details

Date: 15 December 2025
Orbit: 951 x 1102 km, 32.4° (Epoch: 19 January)

Event Time Altitude Azimuth Distance (km) Brightness Sun altitude
Rises 19:24:27 0° 259° (W) 3,632 12.4 -20.4°
Reaches altitude 10° 19:27:31 10° 271° (W) 2,672 11.2 -21.1°
Maximum altitude 19:32:49 27° 327° (NNW) 1,731 9.3 -22.3°
Enters shadow 19:35:31 20° 4° (N) 2,018 9.4 -22.9°
